COSMOS 1867 COOLANT

Satellite information

Favourite Embed

Satellite Type and Status

DEBRISIN ORBIT

Key statistics

Satellite COSMOS 1867 COOLANT at a glance.

Uptime

14037

Days in orbit

Revolutions

≈ 14.3

Per day

Orbit

LEO

Low Earth Orbit

Inclination

65.0

Latest

Satellite identification and parameters

Extended collection of information and parameters for COSMOS 1867 COOLANT.

Object identification

Identified? True

Debris? False

Object name: COSMOS 1867 COOLANT

International designator: 1987-060V

Object number (NORAD): 39658

Object ID (CCSDS): 39658

Country: COMMONWEALTH OF INDEPENDENT STATES (CIS)

Current information (Y/N): Y

RCS size: SMALL

Orbital parameters

Period: 100.38 minutes

Inclination: 65.0082 deg

SMA: 7154.727 km

Apoapsis: 786.281 km

Periapsis: 766.902 km

RAAN: 174.8492 deg

Eccentricy: 0.0013543

Argument of periapsis: 276.5444 deg

Mean anomaly: 83.41 deg

Mean motion: 14.34541728 rev/day

Mean motion (dot): 0.00000697 rev/day2

B* drag term: 0.00028181 1/REarth

Two-line elements (TLE)

Creation date: Dec. 11, 2025, 7:36 a.m.

Reference frame: TEME

Reference center: EARTH

Epoch: Dec. 10, 2025, 9:36 p.m. UTC

TLE line 0: 0 COSMOS 1867 COOLANT

TLE line 1: 1 39658U 87060V 25344.90037201 .00000697 00000-0 28181-3 0 9997

TLE line 2: 2 39658 65.0082 174.8492 0013543 276.5444 83.4100 14.34541728609782

Live tracking on map

Real-time ground track for satellite COSMOS 1867 COOLANT.

In-orbit conjunctions

A list of the most updated potential collisions computed for object COSMOS 1867 COOLANT.

Target Orbit TCA Probability of collision Miss distance Type
ARIANE 1 DEB SSO 2025-08-09 00:36:08 0.0001510316 269.0 (m) DEBRIS
CZ-6A DEB LEO 2025-04-16 19:20:00 0.0003015094 116.0 (m) DEBRIS
RITE TARGET 1 SSO 2024-06-02 00:30:04 0.0001039849 323.0 (m) PAYLOAD

Associated space launch

Nuclear-powered magnetospheric research satellite

COSMOS 1867 COOLANT was lifted into orbit during the mission ‘Tsiklon-2 | Plasma-A 2’, on board a Tsiklon-2 space rocket.

The launch took place on July 10, 1987, 3:35 p.m. from 90.

For more information about the launch, click the button.

Launch to space Tsiklon-2 | Plasma-A 2
Tsiklon-2 | Plasma-A 2

Agency: N/A

Status: Launch Successful

Launch date: July 10, 1987, 3:35 p.m. UTC

Rocket: Tsiklon-2

Launch pad: 90

Location: Baikonur Cosmodrome, Republic of Kazakhstan

...

Latest news about this satellite

There are no fresh news available about this satellite. Check back as we update our databases every day.


Newsletter sign-up

Weekly statistics, charts and insights to help you stay on top of the space industry.